GFSFLT2_700_spd_141.txt.gz
Wind_Speed
21 18 17 15 12 11 11 10 8 6 5 4 4 3 3 4 5 6 7 7 8 10 11 12 14 12 12 7 6 11 8 7
25 22 20 19 16 14 13 12 10 8 6 6 4 4 4 4 6 7 8 8 10 12 13 15 17 15 13 12 11 12 8 8
30 27 24 23 20 18 15 13 12 9 7 7 7 5 4 4 6 7 9 9 11 12 15 17 19 17 15 13 13 12 9 11
31 31 29 26 25 22 20 18 15 12 9 7 7 6 5 4 6 7 9 10 12 13 14 17 22 18 18 17 14 13 12 14
29 34 33 30 28 26 25 22 19 16 13 10 9 8 7 5 5 7 9 11 12 13 12 18 21 19 19 18 17 18 12 15
25 31 38 36 32 31 29 27 23 20 18 14 11 10 9 7 5 6 9 11 13 14 12 16 19 22 21 18 18 19 15 17
31 29 37 41 39 36 34 31 28 24 22 18 15 13 11 9 6 5 8 10 13 14 13 14 19 21 22 19 17 13 15 16
32 35 33 41 45 43 41 37 34 30 26 23 19 16 14 11 8 6 6 9 11 13 13 16 20 21 22 17 17 14 16 17
34 37 39 39 45 50 48 45 41 37 31 28 25 21 18 16 12 9 6 7 9 12 14 17 19 20 21 18 17 15 17 18
35 40 44 46 46 48 54 52 50 44 39 34 30 26 24 20 17 13 10 7 7 10 13 17 18 21 21 19 17 16 16 16
47 42 47 50 51 51 52 58 57 53 47 43 37 32 29 26 23 19 16 13 8 7 9 16 19 21 23 22 20 19 19 19
40 43 50 50 57 56 58 55 62 61 57 52 44 39 35 32 29 26 23 19 15 10 7 9 15 20 22 22 22 23 23 21
43 47 50 57 55 62 60 62 59 66 65 59 51 44 41 38 34 31 28 25 21 16 14 11 10 14 18 19 21 24 24 25
53 46 48 57 55 58 63 62 64 62 68 66 58 48 44 42 40 37 32 31 27 23 20 17 15 13 11 13 17 18 20 22
42 43 47 51 67 45 52 59 60 61 64 65 65 54 47 45 42 42 36 35 32 28 25 23 20 18 15 16 16 16 14 17
44 43 42 42 49 56 49 52 56 65 56 61 67 60 53 47 43 44 40 38 37 32 30 28 26 24 21 20 18 16 13 14
45 44 36 37 40 56 48 50 52 59 61 54 63 65 57 47 47 45 44 40 38 36 33 33 30 27 26 25 22 23 20 16
40 39 38 39 41 49 50 46 49 59 68 62 54 64 58 50 46 46 45 38 37 34 34 33 32 32 31 29 27 27 23 22
37 39 37 35 39 41 47 48 54 51 71 71 59 52 57 53 47 47 44 36 36 36 32 32 31 32 34 31 31 31 28 26
35 34 31 23 28 30 42 41 53 46 60 62 60 55 53 55 47 44 42 40 39 38 34 31 30 31 31 32 32 34 33 32

GFSFLT2_700_spd_144.txt.gz
Wind_Speed
19 19 19 15 16 15 14 14 12 10 10 8 6 5 6 5 5 6 7 7 7 9 8 10 12 13 12 10 10 12 14 17
23 24 24 20 19 18 16 15 14 13 11 9 8 6 6 7 6 6 8 8 9 11 11 12 14 13 13 11 10 12 10 2
22 27 28 26 23 21 20 17 16 14 12 11 9 7 7 7 8 8 8 9 10 12 13 14 15 17 16 15 12 11 16 13
23 23 29 29 27 26 23 20 20 18 15 13 11 9 8 8 8 9 9 10 11 12 14 14 16 18 18 18 14 17 18 9
16 17 24 30 31 29 27 26 24 22 19 16 14 12 11 11 8 8 9 10 11 12 14 13 15 16 18 17 18 15 13 13
23 22 20 23 32 34 32 30 30 26 24 22 18 16 14 13 10 9 8 9 11 12 12 11 13 16 16 18 16 15 13 14
24 25 26 27 27 32 35 34 35 30 29 24 23 20 17 15 13 10 8 8 11 11 12 11 14 18 16 17 17 15 17 13
26 29 29 28 31 32 33 40 38 38 35 30 27 25 22 19 16 13 10 9 7 9 10 11 14 18 18 19 16 15 14 16
27 32 35 37 38 39 39 37 45 44 41 37 33 29 26 23 20 16 11 9 8 7 10 10 15 18 18 18 17 16 14 14
36 33 34 38 41 43 45 47 38 51 48 44 39 35 31 29 25 20 15 11 8 7 10 11 14 18 18 19 17 16 16 15
36 40 43 41 44 49 49 51 51 42 56 52 47 42 38 33 29 25 21 17 12 9 9 10 14 17 19 21 20 17 17 16
41 37 40 45 49 49 55 54 56 56 46 60 56 50 45 40 33 31 27 24 19 14 10 8 12 15 20 21 18 19 20 20
41 45 42 45 51 54 60 60 58 61 60 51 64 58 52 48 41 37 34 30 25 19 15 12 10 16 19 18 21 22 22 21
46 49 55 47 49 56 58 69 65 61 62 59 48 66 60 55 49 44 40 35 33 26 22 19 15 15 11 12 16 17 17 19
49 50 51 47 41 45 50 58 68 65 62 66 66 53 68 62 56 51 46 40 38 32 27 24 21 18 16 14 14 12 13 16
53 56 56 47 38 42 46 57 62 63 62 63 72 71 72 76 64 56 52 47 43 39 32 28 27 24 22 19 17 16 15 11
55 57 53 39 33 36 42 47 55 63 63 57 62 74 71 71 67 59 57 52 46 43 38 34 31 28 25 23 21 21 21 18
54 52 43 36 38 40 42 47 50 62 64 54 59 71 72 50 65 60 61 55 49 46 41 36 34 32 29 27 27 25 23 23
52 42 38 39 41 41 39 46 48 58 61 60 53 60 70 66 59 64 65 56 49 47 44 39 36 33 31 30 30 28 27 26
53 38 33 38 35 25 30 33 43 52 56 53 54 54 64 76 68 58 65 57 50 46 46 39 35 32 29 30 31 29 30 29

GFSFLT2_700_spd_147.txt.gz
Wind_Speed
18 15 19 21 19 17 15 14 13 14 14 13 12 11 9 9 8 8 9 9 8 9 9 10 10 9 9 10 11 8 8 11
18 21 20 23 23 20 19 17 16 14 14 14 13 12 11 10 9 9 9 10 10 11 10 11 11 10 9 11 11 12 8 1
21 20 22 23 25 24 21 21 19 17 15 14 14 13 12 12 11 10 10 12 12 11 11 12 12 12 11 13 12 14 9 9
23 24 18 21 24 24 24 23 22 21 20 17 15 15 14 13 13 11 11 11 13 12 12 13 13 13 15 15 15 16 13 14
17 20 23 22 25 27 26 24 25 24 23 21 19 18 17 16 14 12 12 11 12 13 12 12 13 14 15 17 16 17 16 15
22 22 24 26 25 26 28 31 28 27 27 25 24 22 21 19 17 15 14 12 12 13 13 12 13 14 14 18 17 15 14 10
24 24 25 28 30 30 30 35 34 31 31 29 28 26 24 23 21 18 16 14 12 12 13 13 13 14 16 16 16 17 13 10
22 25 28 29 32 34 35 33 37 37 36 34 33 29 28 27 25 22 18 16 14 12 12 12 14 15 17 17 18 16 11 8
28 27 26 30 34 35 38 38 39 40 41 40 39 35 32 31 30 26 21 19 15 15 12 12 15 14 17 19 19 14 12 9
31 33 33 32 33 37 38 42 44 44 45 47 44 43 38 36 35 31 26 23 20 18 13 9 14 14 17 18 20 18 15 13
34 35 38 39 39 40 42 43 46 50 49 50 51 47 46 42 39 36 32 29 25 21 15 12 13 15 18 19 21 20 17 16
38 38 38 41 41 43 42 45 48 52 57 56 55 50 51 49 46 42 39 36 31 25 19 15 15 16 18 20 21 22 21 18
39 42 43 44 45 44 43 50 52 54 59 60 61 59 49 55 54 51 46 44 38 29 25 20 19 21 22 20 20 20 22 20
42 45 49 51 46 49 53 55 52 50 59 64 61 63 61 54 60 59 54 49 46 38 32 27 24 22 18 17 18 18 18 19
43 47 50 53 53 51 50 57 54 52 53 56 60 62 64 64 57 62 60 55 52 46 39 35 29 25 20 20 18 14 13 15
42 47 54 57 58 54 46 44 44 45 53 58 60 58 65 66 65 59 64 63 57 54 45 39 35 32 27 23 20 19 17 15
45 48 53 53 57 42 35 36 39 42 43 51 62 62 60 65 67 79 68 69 64 59 51 46 41 36 31 26 24 22 21 18
44 49 49 54 44 35 37 39 45 50 50 49 55 64 65 58 61 75 81 66 71 63 55 51 44 40 35 31 28 27 24 21
44 49 50 45 34 36 34 36 37 39 40 46 55 58 63 58 55 65 65 76 79 65 57 55 49 45 40 34 30 28 27 26
44 46 51 42 35 36 32 32 34 37 37 39 44 57 54 54 48 53 50 55 68 59 62 58 53 48 43 38 33 30 29 29

GFSFLT2_700_spd_150.txt.gz
Wind_Speed
21 17 15 20 21 20 19 17 16 15 15 16 14 14 14 15 14 13 13 11 12 12 12 12 13 12 12 13 9 8 9 8
23 20 16 19 22 22 22 21 20 19 17 17 15 14 14 15 15 14 13 13 14 14 13 13 13 12 13 13 11 11 11 9
23 22 21 19 21 23 24 22 21 21 20 19 17 16 15 16 16 15 14 14 15 15 14 15 15 14 14 14 15 14 12 9
24 24 23 22 20 23 25 26 26 23 21 21 20 18 17 17 19 17 15 16 16 17 15 15 16 15 15 16 17 15 13 10
23 25 24 26 24 25 29 31 31 28 25 23 22 22 21 19 19 20 18 17 17 18 16 15 17 18 17 19 19 16 14 13
23 24 26 27 29 28 26 32 33 33 32 29 26 24 25 24 22 20 21 20 18 18 18 18 18 18 18 22 21 17 16 14
21 23 26 28 31 32 31 30 29 36 35 35 33 29 28 27 27 24 23 23 21 19 19 20 19 19 20 23 20 18 16 13
25 24 25 27 29 33 35 35 34 34 36 38 40 37 33 31 31 29 26 24 24 22 21 21 20 21 20 23 21 20 17 13
26 26 26 28 29 31 33 36 39 39 39 39 40 43 41 37 35 34 30 27 26 27 24 22 23 24 22 24 25 20 19 13
33 33 33 33 33 34 35 36 39 43 45 44 43 45 46 46 41 39 35 32 30 30 29 23 23 25 23 25 25 24 21 17
36 36 37 37 37 37 39 39 40 43 46 49 49 49 48 49 47 45 40 38 36 31 32 26 23 24 24 25 27 27 25 22
45 43 41 42 43 44 45 47 48 45 45 47 48 52 53 54 53 48 47 44 41 37 34 31 25 22 24 26 27 29 28 25
47 45 43 43 43 47 48 46 43 46 50 51 49 50 54 58 59 57 52 52 48 42 37 36 31 26 27 31 32 32 32 29
49 48 46 45 46 49 50 51 51 53 50 51 54 54 56 60 62 62 59 54 54 49 44 40 37 32 33 33 35 34 34 33
53 48 46 45 47 51 55 51 52 55 51 49 52 55 60 60 64 66 65 60 54 56 50 47 43 38 35 36 34 38 35 34
55 47 44 45 46 52 58 56 53 38 37 41 44 46 52 61 60 65 65 67 55 59 57 54 48 44 38 37 32 32 30 34
53 44 44 45 46 52 54 41 35 35 35 39 43 45 46 51 59 60 67 68 65 56 62 60 54 49 45 38 34 31 30 31
45 41 41 42 43 49 43 35 36 35 37 41 41 44 47 51 52 53 63 68 69 70 67 68 60 55 49 44 38 34 31 29
40 39 40 39 40 42 43 36 32 34 36 40 41 44 46 45 52 54 52 62 71 80 82 51 65 62 54 50 42 37 33 30
40 39 40 40 39 41 39 35 34 36 38 40 36 38 41 43 45 52 49 53 64 69 65 86 45 61 60 55 47 41 37 35

GFSFLT2_700_spd_153.txt.gz
Wind_Speed
25 22 21 21 23 24 21 19 17 16 16 16 16 15 14 15 16 16 16 15 15 15 14 14 15 14 16 14 13 12 12 12
23 23 23 22 22 25 26 25 24 21 17 16 16 17 17 15 15 16 17 17 16 17 15 15 15 15 18 14 16 14 14 12
22 22 22 20 19 22 25 27 26 25 25 22 19 17 18 18 17 15 17 19 19 19 18 16 16 17 18 17 18 15 15 14
26 23 23 22 20 21 24 26 27 28 28 27 25 22 19 19 20 19 16 18 20 22 21 19 17 18 18 18 19 17 16 14
23 24 25 25 25 24 23 27 27 29 30 31 30 28 26 21 20 22 20 18 19 22 23 21 19 20 20 19 19 20 20 16
21 21 23 26 28 29 29 27 28 29 33 33 34 33 31 28 24 23 23 22 20 22 23 24 22 22 21 22 21 21 20 18
21 21 22 24 27 30 32 33 32 30 30 33 37 37 37 36 32 28 26 25 24 22 23 25 26 24 22 23 23 20 22 20
21 21 23 25 25 27 29 32 34 34 34 34 36 39 39 41 39 36 31 29 27 26 25 25 28 28 24 23 23 21 22 21
21 24 29 31 31 30 29 31 33 35 36 37 38 41 42 44 44 43 39 34 31 29 29 27 27 31 29 25 24 24 23 23
22 29 34 36 36 33 33 33 32 34 37 39 42 44 45 47 47 47 45 42 37 34 32 30 29 30 31 27 25 26 26 25
26 34 39 42 44 40 37 37 36 36 37 39 39 43 48 50 51 50 48 47 44 41 37 34 32 31 31 28 26 28 29 28
33 39 43 47 49 45 42 42 43 43 42 41 41 41 44 50 55 56 53 52 50 46 44 40 36 33 31 30 29 30 30 32
38 43 45 50 51 48 43 43 43 45 44 46 43 47 48 52 55 58 55 56 55 51 47 45 40 38 34 31 32 33 34 34
42 46 50 52 53 48 47 49 49 50 51 49 50 49 50 51 54 57 56 54 57 58 53 50 48 44 41 36 37 37 38 38
44 48 52 54 52 45 43 42 44 45 47 47 41 37 40 42 47 52 56 59 57 58 62 54 54 50 47 44 43 41 40 40
46 49 53 54 49 45 46 48 47 45 48 42 36 35 38 40 42 45 51 57 60 60 61 61 55 56 51 50 46 43 40 39
46 47 51 48 44 43 45 47 45 46 48 43 39 37 36 38 37 43 50 52 53 57 63 65 61 59 58 52 50 46 44 39
43 44 44 43 41 40 42 45 43 43 50 43 40 39 42 43 41 45 49 55 54 52 59 69 68 59 63 59 55 50 43 41
40 41 40 40 38 38 40 42 42 45 51 46 32 34 43 42 44 49 49 52 56 50 53 65 64 72 63 69 59 54 48 41
40 41 40 39 38 38 39 41 42 44 50 41 36 42 41 42 42 42 43 47 51 49 50 61 67 69 69 70 62 59 54 43